Погода в Коста-де-ла-Лус

Испания     36°22′11″N   6°06′19″W
темп.,
°C
ветер,
м/с
пор.,
м/с
влажн.,
%
обл.,
%
осадки,
мм/ч
давл.,
гПа
погр.,
м
16 января, вс
вс1601:00+11в36893 0.0 1027155
04:00+11в35895 0.0 1027130
07:00+11всв36905 0.0 1027144
10:00+12в47885 0.0 1029225
13:00+16вюв446663 0.0 1029926
16:00+16в446397 0.1 1028888
19:00+13в46815 0.1 1028179
22:00+11всв47892 0.0 1030162
17 января, пн
пн1701:00+10всв49891 0.0 1030227
04:00+10всв598912 0.0 1029233
07:00+10всв59865 0.0 1029268
10:00+13в59750 0.0 1030584
13:00+16в78600 0.0 1029948
16:00+16в78580 0.0 1028950
19:00+12в610720 0.0 1028461
22:00+11в611730 0.0 1029510
18 января, вт
вт1801:00+11в713722 0.0 1028533
04:00+11в611737 0.0 1027429
07:00+10в61076100 0.0 1027337
10:00+12в597289 0.0 1028509
13:00+15вюв5655100 0.0 1029799
16:00+15в6656100 0.0 1027656
19:00+11в4772100 0.0 1028230
22:00+10в588093 0.0 1029192
19 января, ср
ср1901:00+10всв478480 0.0 1029173
04:00+9всв468892 0.0 1028145
07:00+8всв478978 0.0 1028157
10:00+10в478149 0.0 1029225
13:00+16вюв555635 0.0 1029798
16:00+16в445338 0.0 1027905
19:00+11в477513 0.0 1027181
22:00+9всв47865 0.0 1028141
20 января, чт
чт2001:00+8всв36880 0.0 1028111
04:00+8всв34890 0.0 102682
07:00+8всв22900 0.0 102558
10:00+9св23852 0.0 1025109
13:00+15всв12575 0.0 1024573
16:00+16зсз33485 0.0 1021712
19:00+12ссз34600 0.0 1021137
22:00+10с23660 0.0 102261